JOKER15 EDDG-ETNN

Flight info

Callsign JOKER15
Flight time N/A
Altitude 1200
Route EDDG VFR ETNN
Aircraft UH1/M-V/N

Departure

Time 2026-04-23 15:15
Airport Münster Osnabrück Airport (EDDG)

Arrival

Time N/A
Airport Nörvenich Air Base (ETNN)
Time Latitude Longitude Altitude Speed Heading
2026-04-23 15:04 52.13154 7.68316 166 ft 0 kts 270°
2026-04-23 15:12 52.13156 7.68306 169 ft 1 kts 271°
2026-04-23 15:13 52.13166 7.68290 169 ft 3 kts 303°
2026-04-23 15:13 52.13197 7.68300 170 ft 5 kts 311°
2026-04-23 15:13 52.13223 7.68317 171 ft 3 kts 312°
2026-04-23 15:13 52.13270 7.68300 168 ft 14 kts 317°
2026-04-23 15:14 52.13383 7.68201 173 ft 28 kts 304°
2026-04-23 15:14 52.13339 7.67772 209 ft 48 kts 257°
2026-04-23 15:14 52.13197 7.67007 360 ft 88 kts 251°
2026-04-23 15:14 52.13026 7.65946 525 ft 103 kts 253°
2026-04-23 15:15 52.12835 7.64801 756 ft 105 kts 246°
2026-04-23 15:15 52.12412 7.63841 790 ft 103 kts 227°
2026-04-23 15:15 52.11954 7.63038 616 ft 89 kts 223°
2026-04-23 15:15 52.11579 7.62389 527 ft 69 kts 222°
2026-04-23 15:16 52.11258 7.61820 539 ft 73 kts 225°
2026-04-23 15:16 52.10926 7.61125 504 ft 82 kts 225°
2026-04-23 15:16 52.10590 7.60398 547 ft 78 kts 225°
2026-04-23 15:16 52.10224 7.59790 598 ft 76 kts 219°
2026-04-23 15:17 52.09847 7.59191 583 ft 76 kts 219°
2026-04-23 15:17 52.09484 7.58545 580 ft 78 kts 222°
2026-04-23 15:17 52.09123 7.57861 596 ft 81 kts 225°
2026-04-23 15:17 52.08711 7.57237 554 ft 79 kts 217°
2026-04-23 15:18 52.08295 7.56703 572 ft 76 kts 213°
2026-04-23 15:18 52.07873 7.56121 544 ft 81 kts 216°
2026-04-23 15:18 52.07454 7.55572 571 ft 76 kts 211°
2026-04-23 15:18 52.07000 7.55090 607 ft 78 kts 208°
2026-04-23 15:19 52.06528 7.54649 645 ft 79 kts 206°
2026-04-23 15:19 52.06032 7.54188 623 ft 84 kts 207°
2026-04-23 15:19 52.05561 7.53720 684 ft 75 kts 210°
2026-04-23 15:19 52.05108 7.53171 688 ft 87 kts 214°
2026-04-23 15:20 52.04804 7.52759 701 ft 84 kts 219°
2026-04-23 15:20 52.04246 7.51926 766 ft 83 kts 225°
2026-04-23 15:20 52.03887 7.51213 824 ft 76 kts 231°
2026-04-23 15:20 52.03596 7.50534 879 ft 76 kts 236°
2026-04-23 15:21 52.03288 7.49818 899 ft 76 kts 231°
2026-04-23 15:21 52.02948 7.49151 923 ft 79 kts 229°
2026-04-23 15:21 52.02503 7.48640 928 ft 79 kts 210°
2026-04-23 15:21 52.02005 7.48234 920 ft 81 kts 206°
2026-04-23 15:22 52.01445 7.48024 925 ft 86 kts 182°
2026-04-23 15:22 52.00834 7.47985 954 ft 90 kts 178°
2026-04-23 15:22 52.00191 7.47973 897 ft 94 kts 175°
2026-04-23 15:22 51.99559 7.48118 904 ft 89 kts 162°
2026-04-23 15:23 51.98995 7.48514 925 ft 86 kts 149°
2026-04-23 15:23 51.98458 7.48943 952 ft 87 kts 148°
2026-04-23 15:23 51.97891 7.49355 926 ft 93 kts 152°
2026-04-23 15:23 51.97275 7.49688 928 ft 93 kts 161°
2026-04-23 15:24 51.96649 7.49937 946 ft 93 kts 163°
2026-04-23 15:24 51.96015 7.50174 955 ft 94 kts 162°
2026-04-23 15:24 51.95375 7.50401 963 ft 94 kts 160°
2026-04-23 15:24 51.94736 7.50628 972 ft 95 kts 163°
2026-04-23 15:25 51.94092 7.50881 969 ft 95 kts 163°
2026-04-23 15:25 51.93453 7.51072 991 ft 93 kts 168°
2026-04-23 15:25 51.92802 7.51191 1002 ft 94 kts 173°
2026-04-23 15:25 51.92146 7.51271 999 ft 97 kts 172°
2026-04-23 15:26 51.91444 7.51375 983 ft 103 kts 169°
2026-04-23 15:26 51.90731 7.51458 951 ft 102 kts 171°
2026-04-23 15:26 51.90028 7.51588 953 ft 101 kts 165°
2026-04-23 15:26 51.89348 7.51831 988 ft 101 kts 160°
2026-04-23 15:27 51.88660 7.52156 992 ft 105 kts 160°
2026-04-23 15:27 51.87946 7.52480 928 ft 107 kts 160°
2026-04-23 15:27 51.87247 7.52793 924 ft 101 kts 161°
2026-04-23 15:27 51.86564 7.53071 918 ft 101 kts 160°
2026-04-23 15:28 51.85855 7.53297 859 ft 105 kts 163°
2026-04-23 15:28 51.85120 7.53396 819 ft 108 kts 180°
2026-04-23 15:28 51.84449 7.53017 825 ft 101 kts 206°
2026-04-23 15:28 51.83885 7.52409 819 ft 94 kts 214°
2026-04-23 15:29 51.83376 7.51792 837 ft 88 kts 219°
2026-04-23 15:29 51.82915 7.51170 909 ft 87 kts 221°
2026-04-23 15:29 51.82485 7.50525 1065 ft 82 kts 224°
2026-04-23 15:29 51.82100 7.49844 1111 ft 81 kts 231°
2026-04-23 15:30 51.81786 7.49089 1153 ft 80 kts 240°
2026-04-23 15:30 51.81504 7.48276 1210 ft 85 kts 243°
2026-04-23 15:30 51.81204 7.47456 1292 ft 85 kts 239°
2026-04-23 15:30 51.80827 7.46693 1317 ft 89 kts 230°
2026-04-23 15:31 51.80431 7.45861 1239 ft 100 kts 234°
2026-04-23 15:31 51.80058 7.44936 1179 ft 97 kts 236°
2026-04-23 15:31 51.79749 7.43994 1149 ft 93 kts 246°
2026-04-23 15:31 51.79556 7.43045 1176 ft 86 kts 252°
2026-04-23 15:32 51.79398 7.42140 1140 ft 82 kts 253°
2026-04-23 15:32 51.79267 7.41261 1138 ft 79 kts 256°
2026-04-23 15:32 51.79156 7.40426 1154 ft 74 kts 261°
2026-04-23 15:32 51.79046 7.39588 1164 ft 78 kts 260°
2026-04-23 15:33 51.78937 7.38704 1102 ft 81 kts 260°
2026-04-23 15:33 51.78779 7.37826 1116 ft 82 kts 253°
2026-04-23 15:33 51.78577 7.36973 1149 ft 80 kts 253°
2026-04-23 15:33 51.78369 7.36132 1159 ft 82 kts 251°
2026-04-23 15:34 51.78157 7.35255 1172 ft 84 kts 249°
2026-04-23 15:34 51.78022 7.34672 1163 ft 84 kts 251°
2026-04-23 15:34 51.77799 7.33483 1129 ft 82 kts 254°
2026-04-23 15:34 51.77701 7.32896 1045 ft 80 kts 255°
2026-04-23 15:35 51.77547 7.32076 972 ft 74 kts 251°
2026-04-23 15:35 51.77392 7.31312 923 ft 70 kts 249°
2026-04-23 15:35 51.77221 7.30579 868 ft 70 kts 250°
2026-04-23 15:35 51.77028 7.29876 807 ft 67 kts 243°
2026-04-23 15:36 51.76822 7.29189 684 ft 69 kts 240°
2026-04-23 15:36 51.76591 7.28471 530 ft 75 kts 244°
2026-04-23 15:36 51.76487 7.27633 885 ft 71 kts 271°
2026-04-23 15:36 51.76740 7.27003 611 ft 73 kts 330°
2026-04-23 15:37 51.77113 7.27405 414 ft 76 kts 63°
2026-04-23 15:37 51.77089 7.28202 337 ft 68 kts 78°
2026-04-23 15:37 51.77055 7.28943 277 ft 67 kts 78°
2026-04-23 15:37 51.77054 7.29676 267 ft 64 kts 82°
2026-04-23 15:38 51.76936 7.30333 295 ft 58 kts 105°
2026-04-23 15:38 51.76580 7.30361 345 ft 59 kts 230°
2026-04-23 15:38 51.76561 7.29758 372 ft 53 kts 273°
2026-04-23 15:38 51.76556 7.29112 324 ft 67 kts 266°
2026-04-23 15:39 51.76497 7.28351 273 ft 67 kts 272°
2026-04-23 15:39 51.76674 7.27698 223 ft 66 kts 282°
2026-04-23 15:39 51.76825 7.27087 226 ft 61 kts 336°
2026-04-23 15:39 51.77057 7.27605 243 ft 71 kts 83°
2026-04-23 15:40 51.77070 7.28404 209 ft 69 kts 74°
2026-04-23 15:40 51.77136 7.29195 210 ft 78 kts 89°
2026-04-23 15:40 51.77345 7.29842 233 ft 66 kts 12°
2026-04-23 15:40 51.77277 7.29398 370 ft 66 kts 227°
2026-04-23 15:41 51.76820 7.29050 346 ft 72 kts 207°
2026-04-23 15:41 51.76499 7.28527 328 ft 61 kts 251°
2026-04-23 15:41 51.76452 7.27829 904 ft 75 kts 267°
2026-04-23 15:41 51.76437 7.26975 764 ft 76 kts 271°
2026-04-23 15:42 51.76547 7.26150 583 ft 74 kts 294°
2026-04-23 15:42 51.76958 7.25839 460 ft 68 kts 357°
2026-04-23 15:42 51.77232 7.26407 489 ft 73 kts 71°
2026-04-23 15:42 51.77145 7.27202 431 ft 72 kts 89°
2026-04-23 15:43 51.77071 7.27887 357 ft 47 kts 73°
2026-04-23 15:43 51.77055 7.28287 332 ft 26 kts 69°
2026-04-23 15:43 51.77051 7.28425 291 ft 1 kts 76°
2026-04-23 15:43 51.77051 7.28441 211 ft 2 kts 74°
2026-04-23 15:44 51.77052 7.28449 189 ft 0 kts 75°
2026-04-23 15:44 51.77052 7.28455 177 ft 0 kts 81°
2026-04-23 15:44 51.77050 7.28464 189 ft 8 kts 73°
2026-04-23 15:45 51.77065 7.28905 244 ft 70 kts 84°
2026-04-23 15:45 51.77024 7.29831 588 ft 98 kts 98°